sat.trackr.live / text

‹ back to catalog

STARLINK-37171

NORAD 68665 · 2026-077D

PAYLOAD ACTIVE UNKNOWN

§ Identity

Operator
Country
US
Launch date
2026-04-11
Launch site
AFWTR
Launch vehicle
Mass (kg)
RCS (m²)

Purposes: comms

External: N2YO · Heavens-Above · Gunter

§ Orbital elements

Epoch: 2026-05-25T05:14:43.922688Z

Period
93.91 min
Inclination
97.2845°
Eccentricity
0.0001261
Mean motion
15.33453260 rev/d
Perigee alt
464.7 km
Apogee alt
466.4 km
Semi-major
6,843.7 km
B*
5.9666e-4
RAAN
16.7498°
Arg perigee
101.4603°
Mean anomaly
258.6782°
Rev number
688

§ Raw data

STARLINK-371711 68665U 26077D   26145.21856392  .00019242  00000+0  59666-3 0  99992 68665  97.2845  16.7498 0001261 101.4603 258.6782 15.33453260  6880

JSON: /api/v1/satellites/68665 · /tle

For live sub-satellite position, see the globe view (requires WebGL).

§ Visibility from observer

Set your observer location to see the next 7 days of passes ≥ 10°. The values pass through the URL so the page stays shareable.

No JS? Fill the form by hand. The geolocation button needs JavaScript.